Regional Weather Roundup
Issued by NWS

Home | Current Version | Previous Version | Text Only | Print | Product List | Glossary On
Versions: 1 2 3 4 5 6 7 8 9 10 11 12 13 14 15 16 17 18 19 20 21 22 23 24 25 26 27 28 29 30 31 32 33 34 35 36 37 38 39 40 41 42 43 44 45 46 47 48 49 50
000
ASUS46 KSTO 311104
RWRCA

NORTHERN AND CENTRAL CA REGIONAL WEATHER ROUNDUP
NATIONAL WEATHER SERVICE SACRAMENTO CA
400 AM PDT SUN AUG 31 2014

NOTE: FAIR INDICATES FEW OR NO CLOUDS BELOW 12,000 FEET WITH NO
SIGNIFICANT WEATHER AND/OR OBSTRUCTIONS TO VISIBILITY.

CAZ001-003-311200-
NORTHWEST AREA

CITY           SKY/WX    TMP DP  RH WIND       PRES   REMARKS
CRESCENT CITY  FOG       56  56 100 SE5       30.01S VSB 1/4
UKIAH          CLEAR     59  50  72 CALM      29.90S
$$

CAZ006-505>513-311200-
BAY AREA

CITY           SKY/WX    TMP DP  RH WIND       PRES   REMARKS
SANTA ROSA     CLEAR     58  54  86 CALM      29.87R
SAN RAFAEL     N/A       63  MM  MM MISG
NAPA           CLEAR     59  56  89 W7        29.87S
CONCORD        CLEAR     63  57  81 S15       29.87S
OAKLAND CITY   N/A       62  MM  MM MISG
OAKLAND        MOCLDY    64  58  80 W8        29.91S
SAN FRAN CITY  N/A       60  MM  91 MISG
SAN FRAN ARPT  PTCLDY    64  58  80 VRB5      29.89F
LIVERMORE      CLEAR     62  58  86 NW8       29.89S
HAYWARD        PTCLDY    65  61  87 NW3       29.90S
REDWOOD CITY   N/A       MM  MM  MM MISG
MOFFETT ARPT   CLEAR     63  58  83 CALM      29.91S
SAN JOSE ARPT  CLEAR     61  57  87 W5        29.90F
$$
CAZ034-037-514>518-311200-
CENTRAL COAST

CITY           SKY/WX    TMP DP  RH WIND       PRES   REMARKS
WATSONVILLE    FOG       60  57  89 CALM      29.92S VSB 1
SALINAS        CLOUDY    62  58  86 W8        29.92S
MONTEREY       CLOUDY    61  58  90 SW8       29.93F
SAN LUIS OBISP PTCLDY    58  53  84 CALM      29.84F
SANTA MARIA    PTCLDY    60  54  80 CALM      29.85F
$$
CAZ015-016-311200-
NORTHERN SACRAMENTO VALLEY

CITY           SKY/WX    TMP DP  RH WIND       PRES   REMARKS
REDDING        CLEAR     72  46  39 CALM      29.84S
RED BLUFF      CLEAR     70  42  36 N8        29.84S
OROVILLE       CLEAR     70  48  45 CALM      29.85R
$$
CAZ016>018-311200-
SOUTHERN SACRAMENTO VALLEY

CITY           SKY/WX    TMP DP  RH WIND       PRES   REMARKS
AUBURN         CLEAR     68  43  40 E8        29.88S
BEALE AFB      CLEAR     66  47  49 NE5       29.82S
LINCOLN        FAIR      70  48  46 SE5       29.82R
MARYSVILLE     CLEAR     66  51  58 SE5       29.83R
SAC INTL ARPT  CLEAR     66  54  65 SE9       29.81R
MATHER AIRPORT NOT AVBL
DOWNTOWN SAC   N/A       67  MM  MM MISG
SAC EXEC ARPT  CLEAR     66  56  70 S3        29.82S
VACAVILLE      CLEAR     68  50  52 CALM      29.82R
TRAVIS AFB     CLEAR     64  57  78 SW21      29.81R
$$
CAZ019>021-311200-
SAN JOAQUIN VALLEY

CITY           SKY/WX    TMP DP  RH WIND       PRES   REMARKS
STOCKTON       CLEAR     65  53  65 W5        29.83F
MODESTO        CLEAR     67  50  54 NW5       29.83S
MERCED         CLEAR     66  44  45 CALM      29.83F
LEMOORE        CLEAR     66  45  46 N9        29.84S
FRESNO         CLEAR     72  42  34 NW7       29.84S
HANFORD        CLEAR     73  41  31 N9        29.83S
PORTERVILLE    CLEAR     64  46  52 SE3       29.85S
BAKERSFIELD    CLEAR     76  40  27 N5        29.85R
$$
CAZ011-012-071-311200-
NORTHERN MOUNTAINS

CITY           SKY/WX    TMP DP  RH WIND       PRES   REMARKS
YREKA          CLEAR     56  47  71 N10       30.03S
MOUNT SHASTA   CLEAR     52  46  80 CALM      30.04R
ALTURAS        CLEAR     44  34  67 CALM      30.07R
$$
CAZ011-012-071-311200-
SIERRA NEVADA MTNS

CITY           SKY/WX    TMP DP  RH WIND       PRES   REMARKS
BLUE CANYON    CLEAR     62  30  29 E5        30.09F
TRUCKEE        CLEAR     41  32  70 CALM      30.13S
TAHOE VLY ARPT CLEAR     47  29  49 CALM      30.13S
MAMMOTH LAKES  FAIR      54  21  28 S6        30.15S
$$




USA.gov is the U.S. government's official web portal to all federal, state and local government web resources and services.